CW1961 Weather Reports


Display with metric or nautical units.
time (UTC)temp
F
wind
direction
speed
MPH
gust
MPH
rain 1hr
in
rain 24hr
in
rain mn
in
humidity
%
barometer
mb
20180524175313 84 210 7.0 10.0 0.00 0.02 0.00 73 1020.6
20180524174323 84 209 5.0 10.0 0.00 0.02 0.00 73 1020.7
20180524173313 84 138 4.0 9.0 0.00 0.02 0.00 74 1020.7
20180524172323 84 209 7.0 10.0 0.00 0.02 0.00 77 1020.8
20180524171316 83 198 5.0 10.0 0.00 0.02 0.00 75 1020.8
20180524170327 83 178 4.0 8.0 0.00 0.02 0.00 75 1020.8
20180524165309 82 189 6.0 10.0 0.00 0.02 0.00 80 1020.7
20180524164324 82 198 7.0 12.0 0.00 0.02 0.00 78 1020.9
20180524163308 81 169 4.0 11.0 0.00 0.02 0.00 81 1020.9
20180524162310 81 178 7.0 10.0 0.00 0.02 0.00 79 1021.0
20180524161319 80 228 4.0 10.0 0.00 0.02 0.00 83 1021.0
20180524160314 80 178 6.0 8.0 0.00 0.02 0.00 80 1021.0
20180524155310 79 211 5.0 7.0 0.00 0.02 0.00 81 1021.0
20180524154320 78 188 6.0 10.0 0.00 0.02 0.00 83 1021.0
20180524153308 78 166 6.0 10.0 0.00 0.02 0.00 83 1020.9
20180524152322 77 197 7.0 10.0 0.00 0.02 0.00 85 1020.9
20180524151312 77 174 8.0 12.0 0.00 0.02 0.00 84 1020.8
20180524150322 76 184 6.0 12.0 0.00 0.02 0.00 86 1020.9
20180524145333 76 173 6.0 12.0 0.00 0.02 0.00 86 1020.9
20180524144326 75 210 5.0 14.0 0.00 0.02 0.00 87 1021.1
20180524143316 75 187 5.0 11.0 0.00 0.02 0.00 88 1020.9
20180524142326 74 186 6.0 10.0 0.00 0.02 0.00 88 1020.9
20180524141317 73 210 7.0 13.0 0.00 0.02 0.00 89 1021.0
20180524140311 72 164 6.0 11.0 0.00 0.02 0.00 92 1021.0
20180524135321 72 180 5.0 10.0 0.00 0.02 0.00 93 1021.1
20180524134310 71 190 6.0 9.0 0.00 0.02 0.00 94 1021.2
20180524133325 70 206 4.0 8.0 0.00 0.02 0.00 95 1021.3
20180524132315 70 165 6.0 6.0 0.00 0.02 0.00 95 1021.5
20180524131324 70 192 5.0 6.0 0.00 0.02 0.00 95 1021.4
20180524130315 70 192 4.0 6.0 0.00 0.02 0.00 96 1021.4
20180524125328 69 145 3.0 8.0 0.00 0.02 0.00 96 1021.3
20180524124318 69 160 4.0 8.0 0.00 0.02 0.00 96 1021.3
20180524123327 68 146 2.0 4.0 0.00 0.02 0.00 97 1021.4
20180524122318 68 116 3.0 7.0 0.00 0.02 0.00 97 1021.6
20180524121312 68 246 2.0 4.0 0.00 0.02 0.00 98 1021.7
20180524120323 68 169 1.0 3.0 0.00 0.02 0.00 97 1021.5
20180524115313 67 179 0.0 3.0 0.00 0.02 0.00 97 1021.4
20180524114327 67 180 1.0 2.0 0.00 0.02 0.00 97 1021.3
20180524113317 67 159 1.0 4.0 0.00 0.02 0.00 97 1020.9
20180524112308 67 296 1.0 3.0 0.00 0.02 0.00 97 1021.0
20180524111319 67 173 3.0 4.0 0.00 0.02 0.00 97 1020.7
20180524110313 67 181 2.0 5.0 0.00 0.02 0.00 97 1020.5
20180524105323 67 165 3.0 6.0 0.00 0.02 0.00 96 1020.5
20180524104313 68 172 4.0 6.0 0.00 0.02 0.00 96 1020.5
20180524103323 68 146 3.0 5.0 0.00 0.02 0.00 96 1020.5
20180524102318 68 169 4.0 6.0 0.00 0.02 0.00 96 1020.5
20180524101327 68 170 3.0 5.0 0.00 0.02 0.00 96 1020.5
20180524100317 68 148 3.0 5.0 0.00 0.02 0.00 95 1020.1
20180524095310 68 182 3.0 6.0 0.00 0.02 0.00 96 1020.2
20180524094320 68 153 4.0 7.0 0.00 0.02 0.00 96 1020.2
20180524093310 68 162 3.0 8.0 0.00 0.02 0.00 96 1020.3
20180524092319 68 167 3.0 8.0 0.00 0.02 0.00 97 1020.3
20180524091313 68 165 2.0 5.0 0.00 0.02 0.00 97 1020.2
20180524090323 67 155 1.0 4.0 0.00 0.02 0.00 97 1020.2
20180524085312 67 144 1.0 3.0 0.00 0.02 0.00 97 1020.3
20180524084322 67 134 2.0 3.0 0.00 0.02 0.00 96 1020.4
20180524083316 67 117 1.0 4.0 0.00 0.02 0.00 96 1020.4
20180524082326 67 140 2.0 4.0 0.00 0.02 0.00 96 1020.3
20180524081316 67 142 2.0 5.0 0.00 0.02 0.00 96 1020.2
20180524080310 68 151 1.0 3.0 0.00 0.02 0.00 96 1020.3
20180524075321 68 179 2.0 4.0 0.00 0.02 0.00 96 1020.1
20180524074310 68 131 2.0 6.0 0.00 0.02 0.00 96 1020.1
20180524073320 68 122 2.0 4.0 0.00 0.02 0.00 95 1020.2
20180524072314 68 98 1.0 4.0 0.00 0.02 0.00 95 1020.3
20180524071325 68 108 3.0 6.0 0.00 0.02 0.00 94 1020.2
20180524070314 69 145 2.0 5.0 0.00 0.02 0.00 94 1020.2
20180524065324 69 169 3.0 7.0 0.00 0.02 0.00 94 1020.2
20180524064318 69 152 4.0 8.0 0.00 0.02 0.00 94 1020.2
20180524063328 69 163 4.0 6.0 0.00 0.02 0.00 94 1020.3
20180524062318 69 178 2.0 4.0 0.00 0.02 0.00 94 1020.5
20180524061312 69 169 2.0 5.0 0.00 0.02 0.00 94 1020.6
20180524060321 69 167 2.0 5.0 0.00 0.02 0.00 95 1020.7
20180524055312 69 172 2.0 5.0 0.00 0.02 0.00 96 1020.5
20180524054322 69 151 1.0 4.0 0.00 0.02 0.00 96 1020.6
20180524053315 69 167 2.0 4.0 0.00 0.02 0.00 95 1020.6
20180524052326 69 132 2.0 4.0 0.00 0.02 0.00 95 1020.6
20180524051315 69 156 2.0 6.0 0.00 0.02 0.00 95 1020.6
20180524050328 69 150 2.0 5.0 0.00 0.02 0.00 95 1020.7
20180524045312 69 167 4.0 7.0 0.00 0.02 0.02 95 1020.7
20180524044321 69 177 4.0 5.0 0.00 0.02 0.02 95 1020.8
20180524043311 70 130 3.0 4.0 0.00 0.02 0.02 94 1020.8
20180524042325 70 113 2.0 4.0 0.00 0.02 0.02 94 1020.8
20180524041314 70 132 2.0 4.0 0.00 0.02 0.02 94 1020.8
20180524040324 70 117 2.0 6.0 0.00 0.02 0.02 94 1020.8
20180524035315 70 117 2.0 4.0 0.00 0.02 0.02 94 1020.8
20180524034309 70 112 2.0 4.0 0.00 0.02 0.02 93 1020.9
20180524033319 70 111 3.0 4.0 0.00 0.02 0.02 93 1020.9
20180524032309 70 99 3.0 4.0 0.00 0.02 0.02 93 1020.8
20180524031319 70 96 3.0 4.0 0.00 0.02 0.02 93 1020.5
20180524030312 70 99 2.0 4.0 0.00 0.02 0.02 92 1020.3
20180524025322 70 81 3.0 4.0 0.00 0.02 0.02 92 1020.2
20180524024310 71 83 3.0 6.0 0.00 0.02 0.02 92 1020.2
20180524023324 71 93 3.0 6.0 0.00 0.02 0.02 92 1020.2
20180524022314 71 93 2.0 6.0 0.00 0.02 0.02 92 1020.3
20180524021324 71 78 4.0 7.0 0.00 0.02 0.02 92 1020.1
20180524020314 71 84 3.0 6.0 0.00 0.02 0.02 92 1020.1
20180524015327 72 88 3.0 6.0 0.00 0.02 0.02 91 1020.0
20180524014318 72 100 2.0 3.0 0.00 0.02 0.02 92 1019.9
20180524013308 73 82 2.0 3.0 0.00 0.02 0.02 92 1019.7
20180524012318 73 38 1.0 3.0 0.00 0.02 0.02 92 1019.6
20180524011312 73 55 3.0 6.0 0.00 0.02 0.02 92 1019.6
20180524010322 74 67 4.0 7.0 0.00 0.02 0.02 91 1019.7
20180524005312 74 83 6.0 8.0 0.00 0.02 0.02 90 1019.7
20180524004325 74 63 6.0 10.0 0.00 0.02 0.02 90 1019.7
20180524003315 74 71 4.0 8.0 0.00 0.02 0.02 89 1019.7
20180524002325 74 78 4.0 7.0 0.00 0.02 0.02 89 1019.4
20180524001318 75 97 4.0 6.0 0.00 0.02 0.02 89 1019.1
20180524000316 75 105 2.0 7.0 0.00 0.02 0.02 88 1019.1
20180523235328 74 107 3.0 8.0 0.00 0.02 0.02 87 1019.0
20180523234319 74 164 3.0 8.0 0.00 0.02 0.02 86 1018.7
20180523233328 74 168 5.0 8.0 0.00 0.02 0.02 86 1018.6
20180523232322 74 168 4.0 8.0 0.00 0.02 0.02 86 1018.5
20180523231312 74 195 3.0 5.0 0.00 0.02 0.02 86 1018.8
20180523230322 74 184 3.0 4.0 0.00 0.02 0.02 85 1019.0
20180523225312 74 98 3.0 6.0 0.00 0.02 0.02 86 1019.1
20180523224326 73 109 3.0 7.0 0.00 0.02 0.02 85 1019.3
20180523223316 73 101 4.0 7.0 0.00 0.02 0.02 86 1019.6
20180523222326 73 100 4.0 6.0 0.00 0.02 0.02 87 1019.6
20180523221316 72 115 2.0 4.0 0.00 0.02 0.02 87 1019.7
20180523220311 72 93 3.0 7.0 0.01 0.02 0.02 88 1019.6
20180523215323 72 112 3.0 6.0 0.01 0.02 0.02 87 1019.8
20180523214316 72 66 5.0 10.0 0.01 0.02 0.02 87 1019.6
20180523213325 71 82 7.0 11.0 0.01 0.02 0.02 87 1019.7
20180523212319 71 72 6.0 9.0 0.01 0.02 0.02 88 1019.9
20180523211329 70 67 6.0 10.0 0.01 0.02 0.02 89 1020.1
20180523210319 69 87 5.0 9.0 0.00 0.01 0.01 91 1020.0
20180523205309 69 74 4.0 6.0 0.00 0.01 0.01 91 1020.2
20180523204323 68 65 4.0 7.0 0.00 0.01 0.01 91 1020.5
20180523203313 68 59 4.0 9.0 0.01 0.01 0.01 90 1020.7
20180523202323 68 53 7.0 12.0 0.01 0.01 0.01 88 1021.0
20180523201316 69 44 6.0 9.0 0.01 0.01 0.01 91 1021.1
20180523200326 68 59 3.0 6.0 0.01 0.01 0.01 92 1021.0
20180523195316 68 21 3.0 9.0 0.01 0.01 0.01 91 1021.0
20180523194325 69 22 5.0 11.0 0.01 0.01 0.01 89 1021.2
20180523193319 70 5 7.0 17.0 0.00 0.00 0.00 89 1021.7
20180523192329 71 346 5.0 13.0 0.00 0.00 0.00 87 1022.1
20180523191318 72 321 2.0 7.0 0.00 0.00 0.00 87 1021.4
20180523190308 72 179 6.0 11.0 0.00 0.00 0.00 83 1020.9
20180523185323 72 162 9.0 15.0 0.00 0.00 0.00 82 1020.4
20180523184312 74 158 11.0 19.0 0.00 0.00 0.00 81 1020.2
20180523183322 80 183 9.0 17.0 0.00 0.00 0.00 79 1020.2
20180523182315 83 171 3.0 8.0 0.00 0.00 0.00 72 1019.9
20180523181325 85 142 3.0 6.0 0.00 0.00 0.00 71 1020.1
20180523180314 86 67 5.0 8.0 0.00 0.00 0.00 72 1020.1